Regional Weather Roundup
Issued by NWS

Home | Current Version | Previous Version | Text Only | Print | Product List | Glossary On
Versions: 1 2 3 4 5 6 7 8 9 10 11 12 13 14 15 16 17 18 19 20 21 22 23 24 25 26 27 28 29 30 31 32 33 34 35 36 37 38 39 40 41 42 43 44 45 46 47 48 49 50
000
ASUS45 KBOI 231310
RWRID
WEATHER ROUNDUP FOR IDAHO
NATIONAL WEATHER SERVICE BOISE ID
600 AM MST SUN NOV 23 2014

NOTE: "FAIR" INDICATES FEW OR NO CLOUDS BELOW 12000 FEET
WITH NO SIGNIFICANT WEATHER AND/OR OBSTRUCTIONS TO VISIBILITY

IDZ012-014-231400-
SOUTHWEST IDAHO


CITY           SKY/WX    TMP DP  RH WIND       PRES   REMARKS
BOISE          CLEAR     29  25  85 CALM      30.24R
CALDWELL       NOT AVBL
MOUNTAIN HOME  CLEAR     30  30  99 NW6       30.24R WCI  24
$$

IDZ016-017-231400-
SOUTHCENTRAL IDAHO


CITY           SKY/WX    TMP DP  RH WIND       PRES   REMARKS
BURLEY         MIX PCPN  31  24  75 W22G35    30.10R WCI  18
JEROME         CLEAR     30  24  78 SW20      30.16R WCI  17
TWIN FALLS     CLEAR     31  23  72 SW21      30.18R WCI  18
$$

IDZ019>023-231400-
SOUTHEAST IDAHO


CITY           SKY/WX    TMP DP  RH WIND       PRES   REMARKS
IDAHO FALLS    PTCLDY    26  23  88 S6        30.03R WCI  19
POCATELLO      CLEAR     30  27  88 SW16      30.08R WCI  19
REXBURG        PTCLDY    24  23  96 S8        30.00R WCI  15
$$

IDZ006-010-011-018-031-032-231400-
CENTRAL IDAHO MOUNTAINS


CITY           SKY/WX    TMP DP  RH WIND       PRES   REMARKS
MCCALL         FLURRIES  27  23  85 E3        30.13R
HAILEY         CLEAR     30  16  55 N7        30.08R WCI  23
STANLEY          N/A     20  13  74 CALM      30.11R
SALMON         MOCLDY    27  27 100 NE5       30.07R WCI  21
CHALLIS        CLEAR     18  13  80 CALM      30.07R
$$

IDZ002-004-006-007-026-231400-
NORTHERN IDAHO


CITY           SKY/WX    TMP DP  RH WIND       PRES   REMARKS
LEWISTON       CLEAR     41  30  65 S5        30.17R
LOWELL           N/A     34  33  96 CALM      30.22R
COEUR D`ALENE  CLOUDY    30  28  93 S6        30.12R WCI  24
MULLAN PASS    CLOUDY    24  21  88 NW8       29.98R FOG     WCI  15
$$


USA.gov is the U.S. government's official web portal to all federal, state and local government web resources and services.